Probability
6 6 6 6 5 4 4 4 4 4 3 3 3 3 3 2 1 0 0 0 0 1 2 2 1 2 2 2 1 1 2 3 2 1 0 0 0 0 0 0 0 0 0
6 6 6 5 4 3 4 5 5 4 3 3 3 3 3 2 1 0 0 0 0 1 2 2 2 1 1 2 1 1 2 3 2 1 0 0 0 0 0 0 0 0 0
4 4 4 4 3 3 3 4 5 5 4 3 3 3 3 2 1 0 0 0 0 0 1 2 2 2 1 1 1 1 1 2 2 1 0 0 0 0 0 0 0 0 0
2 1 2 2 3 3 3 3 3 4 5 4 3 3 3 2 1 0 0 0 0 0 0 1 1 2 2 2 2 2 2 2 1 0 0 0 0 0 0 0 0 0 0
1 0 0 1 1 2 2 2 2 4 5 4 3 2 2 1 0 0 0 0 0 0 0 0 0 1 1 2 3 3 3 3 2 1 0 0 0 0 0 0 0 0 0
0 0 0 0 0 1 1 1 1 2 4 4 2 1 1 0 0 0 0 0 0 0 0 0 0 0 0 1 2 3 3 3 3 1 0 0 0 0 0 0 0 0 0
0 0 0 0 0 0 0 0 1 1 2 2 1 0 0 0 0 0 0 0 0 0 0 0 0 0 0 1 2 2 3 3 3 1 0 0 0 0 0 0 0 0 0
0 0 0 0 0 0 0 0 1 1 0 0 0 0 0 0 0 0 0 0 0 0 0 0 0 0 0 1 2 2 2 2 1 0 0 0 0 0 0 1 1 1 1
0 0 0 0 0 0 0 0 1 2 1 0 0 0 0 0 0 0 0 0 0 0 0 0 0 0 0 1 1 1 1 1 0 0 0 0 0 0 1 3 3 2 2
0 0 0 0 0 0 0 0 1 2 2 1 0 0 0 0 0 0 0 0 0 0 0 0 0 0 0 0 0 0 0 0 0 0 0 0 0 0 1 2 2 2 2
0 0 0 0 0 0 0 0 0 1 1 1 0 0 0 0 0 0 0 0 0 0 0 0 0 0 0 0 0 0 0 0 0 0 0 0 0 0 0 1 1 0 1
0 0 0 0 0 0 0 0 0 0 0 0 0 0 0 0 0 0 0 0 0 0 0 0 0 0 0 0 0 0 0 0 0 0 0 0 0 0 0 0 0 0 0
0 0 0 0 0 0 0 0 0 0 0 0 0 0 0 0 0 0 0 0 0 0 0 0 0 0 0 0 0 0 0 0 0 0 0 0 0 0 0 0 0 0 0
0 0 0 0 0 0 0 0 0 0 0 0 0 0 0 0 0 0 0 0 0 0 0 0 0 0 0 0 0 0 0 0 0 0 0 0 0 0 0 0 0 0 0
0 0 0 0 0 0 0 0 0 0 0 0 0 0 1 0 0 0 0 0 0 0 0 0 0 0 0 0 0 0 0 0 0 0 0 0 0 0 0 0 0 0 0
1 0 0 0 0 0 0 0 0 0 0 0 0 0 0 0 0 0 0 0 0 0 0 0 0 0 0 0 0 0 0 0 0 0 0 0 0 0 0 0 0 0 0
2 1 1 0 0 0 0 0 0 0 0 0 0 0 0 0 0 0 0 0 0 0 0 0 0 0 0 0 0 0 0 0 0 0 0 0 0 0 0 0 0 0 0
2 2 2 1 0 0 0 0 0 0 0 0 0 0 0 0 0 0 0 0 0 0 0 0 0 0 0 0 0 0 0 0 0 0 0 0 0 0 0 0 0 0 0
1 2 2 1 0 0 0 0 0 0 0 0 0 0 0 0 0 0 0 0 0 0 0 0 0 0 0 0 0 0 0 0 0 0 0 0 0 0 0 0 0 0 0
0 1 1 0 0 0 0 0 0 0 0 0 0 0 0 0 0 0 0 0 0 0 0 0 0 0 0 0 0 0 0 0 0 0 0 0 0 0 0 0 0 0 0
0 0 0 0 0 0 0 0 0 0 0 0 0 0 0 0 0 0 0 0 0 0 0 0 0 0 0 0 0 0 0 0 0 0 0 0 0 0 0 0 0 0 0
0 0 0 0 0 0 0 0 0 0 0 0 0 0 0 0 0 0 0 0 0 0 0 0 0 0 0 0 0 0 0 0 0 0 0 0 0 0 0 0 0 0 0
0 0 0 0 0 0 0 0 0 0 0 0 0 0 0 0 0 0 0 0 0 0 0 0 0 0 0 0 0 0 0 0 0 0 0 0 0 0 0 0 0 0 0
0 0 0 0 0 0 0 0 0 0 0 0 0 0 0 0 0 0 0 0 0 0 0 0 0 0 0 0 0 0 0 0 0 0 0 0 0 0 0 0 0 0 0
0 0 0 0 0 0 0 0 0 0 0 0 0 0 0 0 0 0 0 0 0 0 0 0 0 0 0 0 0 0 0 0 0 0 0 0 0 0 0 0 0 0 0
0 0 0 0 0 0 0 0 0 0 0 0 0 0 0 0 0 0 0 0 0 0 0 0 0 0 0 0 0 0 0 0 0 0 0 0 0 0 0 0 0 0 0
Wind_Speed
1 1 1 1 1 1 1 1 1 1 2 2 2 2 2 2 2 2 2 5 5 3 3 4 4 4 5 5 5 5 5 6 6 6 6 7 6 6 6 6 6 7 6
1 1 1 1 1 1 1 0 1 1 1 1 1 1 1 2 2 2 2 3 5 5 4 4 4 4 4 5 5 5 5 5 5 5 6 6 6 6 6 6 6 6 5
1 1 1 1 1 1 1 1 1 1 1 1 1 1 1 1 1 2 2 1 2 4 6 5 4 4 4 4 4 5 5 5 5 5 5 5 4 5 5 5 5 4 4
1 1 1 1 0 0 1 1 1 1 1 1 1 1 1 1 1 2 1 2 2 2 4 6 5 4 3 3 3 4 4 5 4 4 4 4 3 3 4 4 4 4 3
0 0 1 1 0 1 1 1 1 1 1 1 1 1 1 1 1 1 2 2 2 2 2 4 5 6 5 3 3 3 3 4 4 3 3 3 3 2 2 3 3 3 3
1 0 0 1 1 1 1 1 1 1 1 1 1 1 1 1 0 1 1 2 2 2 2 2 2 3 5 5 3 2 2 2 3 2 2 2 2 2 1 1 2 2 2
0 0 0 1 1 1 1 2 2 1 0 1 1 0 0 0 0 1 1 1 1 2 2 2 1 1 2 4 4 3 1 1 1 1 1 1 1 1 1 1 1 1 2
0 0 1 1 1 1 1 2 2 1 0 1 1 1 2 2 1 1 1 0 0 0 1 1 1 1 1 1 3 3 3 1 0 1 1 2 2 1 2 3 2 2 2
1 1 1 1 1 2 2 2 3 3 2 2 2 2 2 2 1 2 2 1 1 1 1 0 0 1 1 1 1 2 3 3 2 1 1 1 2 3 3 3 3 3 3
1 1 1 1 1 2 2 2 3 3 3 3 2 2 2 1 2 2 2 2 2 2 2 1 1 1 0 0 1 3 3 3 3 3 3 3 2 2 3 4 3 3 3
2 1 2 2 2 2 3 3 3 3 3 3 3 2 2 2 3 2 3 3 2 2 2 2 2 1 1 0 0 2 4 3 3 4 5 4 4 4 4 4 4 4 4
2 2 2 2 2 2 3 3 3 4 4 4 3 3 3 2 3 2 3 3 3 3 3 3 3 2 2 1 1 3 3 3 4 4 5 5 5 5 5 5 4 4 5
2 2 2 3 2 3 3 3 4 4 4 4 4 3 4 4 3 3 3 2 3 2 3 3 3 2 2 2 1 3 3 4 5 5 5 5 5 5 5 5 5 5 6
3 3 3 3 3 3 3 3 3 4 4 4 5 5 4 3 3 3 3 3 3 3 4 5 3 3 2 3 3 4 4 4 5 5 5 5 5 5 5 6 6 6 7
2 3 4 4 4 4 4 4 3 4 4 4 4 5 4 3 3 4 3 4 4 4 5 4 3 4 3 3 4 4 4 5 5 5 5 6 6 6 6 7 7 7 7
3 4 4 4 4 4 4 4 4 4 5 5 4 5 5 4 4 4 4 4 4 5 5 4 4 3 4 4 5 5 5 6 6 6 6 7 7 7 7 8 7 8 8
3 4 4 4 5 5 5 5 5 5 5 5 5 6 6 5 4 4 4 4 5 5 6 4 3 3 5 5 5 5 5 5 5 7 8 8 8 9 9 9 8 8 8
4 4 4 4 4 5 5 5 6 6 6 6 6 6 7 5 6 5 5 5 5 5 6 6 4 4 6 6 5 5 4 4 5 6 8 8 8 8 8 9 9 9 8
4 4 4 4 4 5 5 5 6 6 6 6 6 7 7 7 7 6 6 6 5 5 5 5 5 4 4 4 4 5 5 5 5 5 7 8 8 8 8 9 10 10 9
4 4 4 4 4 5 5 5 5 6 6 6 6 6 6 7 8 7 6 7 6 6 6 5 5 4 4 4 4 4 4 5 5 5 6 7 8 9 10 10 10 10 10
4 4 4 4 4 4 4 5 5 6 6 6 6 7 7 8 9 8 6 6 6 6 6 6 5 4 4 4 4 4 5 4 5 4 5 5 5 5 6 9 10 10 11
4 4 4 5 5 4 6 7 7 6 6 7 7 7 7 8 10 11 11 10 9 8 7 6 6 7 7 6 5 4 5 5 5 3 5 6 5 6 6 6 9 11 12
4 4 4 5 5 6 7 8 9 7 7 7 7 7 6 6 9 8 9 11 11 12 12 8 9 9 8 7 6 7 7 7 6 4 4 7 5 7 6 6 11 12 12
4 4 5 5 5 6 7 9 9 8 7 7 7 8 8 8 7 8 7 8 9 10 11 9 9 9 8 7 7 7 7 6 6 5 5 6 5 6 6 6 10 11 11
4 4 5 5 6 6 8 9 9 6 6 7 7 8 9 8 10 11 8 8 8 8 10 12 12 11 11 11 8 5 5 5 6 5 4 5 4 5 6 6 8 11 11
4 4 5 5 6 6 8 9 9 5 6 6 6 7 10 10 11 11 8 7 8 7 6 7 8 8 8 8 10 8 6 6 5 5 4 4 4 3 4 4 5 5 7
Wind_Direction
114 105 94 91 79 68 71 74 88 79 78 72 65 63 66 74 64 66 68 54 51 72 96 102 102 113 120 121 115 107 112 117 111 103 98 96 100 105 109 108 107 105 103
101 131 127 108 88 73 65 65 95 98 85 77 65 57 51 75 63 59 66 72 52 45 56 82 84 100 111 119 117 109 105 109 117 113 104 103 102 109 110 107 107 109 110
88 127 123 109 77 79 92 97 91 84 76 82 74 47 32 49 58 57 62 64 71 54 45 52 67 89 102 114 116 111 105 99 99 106 105 103 106 111 118 120 121 122 119
50 99 121 101 82 149 128 118 130 105 86 65 39 23 15 38 55 52 62 58 53 54 55 41 40 56 83 107 118 120 117 108 104 94 97 103 108 117 121 133 139 141 142
30 103 110 107 149 159 160 146 157 144 139 79 44 27 13 10 51 65 71 64 51 46 53 51 40 40 48 69 96 109 118 117 111 101 93 106 116 119 133 135 143 151 162
33 74 90 128 152 161 164 162 148 138 155 131 96 61 29 13 106 95 94 82 70 60 50 47 44 42 42 45 58 77 103 121 116 113 108 95 114 127 128 155 171 169 181
73 115 137 174 197 188 188 177 157 151 152 163 161 154 127 44 122 102 109 95 78 66 59 53 43 37 29 38 43 46 74 129 134 128 147 150 118 189 213 211 207 207 219
132 206 203 197 217 198 180 182 174 178 211 237 225 206 213 205 193 190 171 148 140 85 77 51 47 45 22 10 30 28 27 12 294 185 201 213 231 260 261 251 249 244 240
188 202 227 212 217 206 198 201 201 199 207 221 254 244 224 217 195 196 203 197 200 213 214 208 336 24 18 7 359 24 6 2 342 297 268 258 261 265 277 279 257 258 258
207 206 225 227 221 219 215 214 221 227 212 212 224 261 290 292 224 200 196 199 212 227 227 222 223 229 302 330 359 4 348 326 310 288 274 270 281 285 287 290 292 280 270
207 216 224 225 228 227 222 218 222 231 227 225 220 220 234 262 252 229 216 207 214 219 228 232 225 216 219 242 278 346 333 312 295 283 273 268 269 275 285 293 292 295 289
213 220 232 233 235 238 228 227 228 231 230 234 234 223 219 223 222 228 235 224 226 219 228 227 220 218 216 228 270 331 317 306 294 284 276 270 264 267 271 278 285 291 300
223 225 231 239 239 245 244 235 231 235 232 231 235 237 236 237 238 234 234 237 242 240 225 221 214 219 220 234 243 297 282 293 290 283 278 279 283 281 280 280 284 286 287
235 233 235 243 244 241 242 241 237 236 238 235 238 240 243 240 235 227 221 216 232 235 231 225 211 218 223 239 258 260 254 274 284 279 279 284 291 290 284 281 279 278 278
242 234 235 241 240 236 238 238 239 239 239 237 237 238 241 245 242 231 224 222 227 232 234 227 220 214 230 244 254 254 254 254 264 271 275 279 279 276 273 276 276 275 275
240 237 236 236 237 235 233 234 239 240 239 239 238 238 238 241 247 239 228 228 234 240 244 233 241 240 237 249 251 256 257 260 252 254 260 266 269 269 267 269 273 276 276
242 239 241 241 239 237 234 232 235 237 239 242 238 237 238 238 240 242 233 227 228 232 245 251 246 244 237 244 248 252 254 253 251 253 258 260 263 264 263 265 269 272 274
245 246 246 246 247 245 241 237 237 237 239 240 240 240 240 238 238 240 233 233 231 230 239 248 242 238 242 240 245 250 256 259 259 258 259 261 262 262 263 264 266 268 269
247 245 244 246 247 249 248 244 241 240 244 245 243 242 241 238 238 239 232 233 234 234 236 243 247 241 247 243 245 248 255 257 260 257 255 256 257 260 264 265 265 263 264
247 249 248 247 249 249 247 246 246 244 244 246 245 246 245 243 240 241 233 231 229 230 230 234 240 242 246 246 246 245 252 252 258 256 253 255 257 258 260 261 262 263 263
250 251 253 253 251 249 242 244 249 248 246 247 245 246 246 247 246 245 238 232 227 229 230 231 234 239 239 235 240 247 257 268 266 253 255 252 255 255 253 252 254 257 260
256 251 250 252 251 249 251 251 252 252 250 247 246 247 248 248 248 249 243 239 235 231 232 234 238 238 241 244 248 244 251 258 263 247 260 262 257 257 256 253 256 260 260
256 250 249 252 255 257 255 254 253 253 250 249 249 249 248 244 248 250 246 244 242 240 238 236 241 242 243 239 238 241 243 248 260 260 259 266 260 259 259 257 261 263 263
257 257 252 253 259 264 261 260 260 256 253 250 250 249 250 249 247 246 242 242 244 242 242 239 243 246 247 245 238 243 250 258 270 260 249 264 267 266 266 262 257 259 261
260 263 262 256 257 264 263 263 265 259 253 254 253 251 250 250 255 250 243 244 248 248 249 252 255 257 255 254 250 241 238 243 256 256 248 258 265 273 273 266 260 257 259
262 267 269 263 260 262 264 266 262 254 255 257 256 252 250 252 258 251 241 242 246 249 251 254 255 255 251 242 235 231 228 233 249 255 232 248 263 276 275 265 265 264 260